Location: Unspecified
(54.1780°N, 0.0000°E)
Time: 01:24:42
(UTC+00:00)

Altair - Pass Details

Date: 24 June 2019
Orbit: 1501 x 1683 km, 47.2° (Epoch: 16 August)

Event Time Altitude Azimuth Distance (km) Brightness Sun altitude
Rises 02:16:32 0° 285° (WNW) 4,854 10.0 -7.2°
Reaches altitude 10° 02:20:31 10° 272° (W) 3,891 9.3 -6.9°
Maximum altitude 02:27:34 23° 226° (SW) 3,040 8.5 -6.3°
Drops below altitude 10° 02:34:44 10° 180° (S) 3,936 9.2 -5.8°
Sets 02:38:49 0° 167° (SSE) 4,924 9.8 -5.4°
